• Join FlightAware (Why Join?)
  • Login
  • US Flag GB Flag 
18:03 EDT


 

Airport Tracker/Info


-or-


 

Live Flight TrackerFlight Track Log ✈ AAL1326 ✈ 29-Aug-2013 ✈ KSEA - KDFW

Flight Track Log - Related Links

Times and Time Zones

All times are in EDT time to prevent confusion due to time zone crossing. See the AAL1326 flight status page for this flight to view local times or setup timezone preferences in your user account.

Time Position Orientation Groundspeed Altitude Reporting Facility
EDT Latitude Longitude Course Direction KTS MPH feet Rate Location/Type
12:46 47.4378 -122.3122 173° South 163 188 1,100  Level Seattle Center
12:47 47.3933 -122.3042 173° South 164 189 3,100 2,340 Climbing Seattle Center
12:48 47.3253 -122.3044 180° South 239 275 5,800 3,120 Climbing Seattle Center
12:49 47.2542 -122.3053 180° South 253 291 9,500 3,000 Climbing Seattle Center
12:50 47.1864 -122.3022 178° South 246 283 12,000 1,860 Climbing Seattle Center
12:51 47.1036 -122.2972 178° South 283 326 13,400 1,740 Climbing Seattle Center
12:52 47.0194 -122.2547 161° South 326 375 15,600 2,160 Climbing Seattle Center
12:53 46.9397 -122.2008 155° Southeast 341 392 17,800 2,160 Climbing Seattle Center
12:54 46.8481 -122.1408 156° South 356 410 20,000 2,040 Climbing Seattle Center
12:55 46.7569 -122.0717 153° Southeast 369 425 22,100 1,920 Climbing Seattle Center
12:56 46.6631 -122.0039 154° Southeast 383 441 24,000 1,920 Climbing Seattle Center
12:57 46.5636 -121.8781 139° Southeast 398 458 26,100 1,740 Climbing Seattle Center
12:58 46.4972 -121.7378 124° Southeast 417 480 27,600 1,440 Climbing Seattle Center
12:59 46.4147 -121.6161 135° Southeast 429 494 29,100 1,500 Climbing Seattle Center
13:00 46.3375 -121.4794 129° Southeast 439 505 30,700 1,560 Climbing Seattle Center
13:01 46.2922 -121.3106 111° Southeast 450 518 32,400 1,560 Climbing Seattle Center
13:02 46.2369 -121.1531 117° Southeast 440 506 33,900 1,200 Climbing Seattle Center
13:03 46.1794 -120.9972 118° Southeast 441 507 34,900 1,200 Climbing Seattle Center
13:04 46.1214 -120.8411 118° Southeast 442 509 36,400 1,140 Climbing Seattle Center
13:05 46.0636 -120.6853 118° Southeast 443 510 37,300 780 Climbing Seattle Center
13:06 46.0047 -120.5278 118° Southeast 445 512 38,100 660 Climbing Seattle Center
13:07 45.9456 -120.3722 119° Southeast 444 511 38,700 480 Climbing Seattle Center
13:08 45.8731 -120.1819 119° Southeast 453 521 39,100 180 Climbing Seattle Center
13:09 45.8128 -120.0236 119° Southeast 452 520 39,100  Level Seattle Center
13:10 45.7514 -119.8664 119° Southeast 453 521 39,100  Level Seattle Center
13:11 45.6903 -119.7086 119° Southeast 452 520 39,100  Level Seattle Center
13:12 45.6281 -119.5517 120° Southeast 451 519 39,100  Level Seattle Center
13:13 45.5658 -119.3925 119° Southeast 456 525 39,100  Level Seattle Center
13:14 45.5033 -119.2339 119° Southeast 457 526 39,100  Level Seattle Center
13:15 45.4403 -119.0767 120° Southeast 457 526 39,100  Level Seattle Center
13:16 45.3767 -118.9164 119° Southeast 462 532 39,100  Level Seattle Center
13:17 45.3122 -118.7578 120° Southeast 463 533 39,100  Level Seattle Center
13:18 45.2475 -118.5981 120° Southeast 465 535 39,100  Level Seattle Center
13:19 45.1828 -118.4392 120° Southeast 465 535 39,100  Level Seattle Center
13:20 45.1178 -118.2806 120° Southeast 465 535 39,100  Level Seattle Center
13:21 45.0400 -118.0939 120° Southeast 462 532 39,100  Level Seattle Center
13:22 44.9781 -117.9367 119° Southeast 459 528 39,100  Level Seattle Center
13:23 44.9125 -117.7797 120° Southeast 461 531 39,100  Level Seattle Center
13:24 44.8556 -117.6522 122° Southeast 467 537 39,100  Level Salt Lake Center
13:25 44.7764 -117.4653 121° Southeast 467 537 39,100  Level Salt Lake Center
13:26 44.7119 -117.3111 120° Southeast 460 529 39,100  Level Salt Lake Center
13:27 44.6422 -117.1572 122° Southeast 465 535 39,100  Level Salt Lake Center
13:28 44.5753 -117.0031 121° Southeast 465 535 39,100  Level Salt Lake Center
13:30 44.5103 -116.8494 121° Southeast 461 531 39,100  Level Salt Lake Center
13:31 44.4447 -116.6958 121° Southeast 460 529 39,100  Level Salt Lake Center
13:32 44.3642 -116.5111 121° Southeast 465 535 39,100  Level Salt Lake Center
13:33 44.2972 -116.3592 122° Southeast 463 533 39,100  Level Salt Lake Center
13:34 44.2308 -116.2061 121° Southeast 461 531 39,100  Level Salt Lake Center
13:35 44.1567 -116.0314 121° Southeast 465 535 39,100  Level Salt Lake Center
13:36 44.0919 -115.8850 122° Southeast 462 532 39,100  Level Salt Lake Center
13:37 44.0231 -115.7289 121° Southeast 456 525 39,100  Level Salt Lake Center
13:38 43.9528 -115.5725 122° Southeast 458 527 39,100  Level Salt Lake Center
13:39 43.8819 -115.4128 122° Southeast 463 533 39,100  Level Salt Lake Center
13:40 43.8111 -115.2553 122° Southeast 461 531 39,100  Level Salt Lake Center
13:41 43.7456 -115.1122 122° Southeast 459 528 39,100  Level Salt Lake Center
13:42 43.6744 -114.9550 122° Southeast 460 529 39,100  Level Salt Lake Center
13:43 43.6028 -114.7994 122° Southeast 460 529 39,100  Level Salt Lake Center
13:44 43.5303 -114.6439 123° Southeast 463 533 39,100  Level Salt Lake Center
13:45 43.4606 -114.4947 123° Southeast 467 537 39,100  Level Salt Lake Center
13:46 43.3847 -114.3283 122° Southeast 465 535 39,100  Level Salt Lake Center
13:47 43.3150 -114.1828 123° Southeast 471 542 39,100  Level Salt Lake Center
13:48 43.2411 -114.0256 123° Southeast 472 543 39,100  Level Salt Lake Center
13:49 43.1672 -113.8689 123° Southeast 475 547 39,100  Level Salt Lake Center
13:50 43.0983 -113.7228 123° Southeast 476 548 39,100  Level Salt Lake Center
13:51 43.0169 -113.5547 123° Southeast 476 548 39,100  Level Salt Lake Center
13:52 42.9481 -113.4089 123° Southeast 477 549 39,100  Level Salt Lake Center
13:53 42.8667 -113.2414 124° Southeast 476 548 39,100  Level Salt Lake Center
13:54 42.7981 -113.0986 123° Southeast 474 545 39,100  Level Salt Lake Center
13:55 42.7161 -112.9317 124° Southeast 475 547 39,100  Level Salt Lake Center
13:56 42.6461 -112.7900 124° Southeast 470 541 39,100  Level Salt Lake Center
13:57 42.5739 -112.6417 123° Southeast 470 541 39,100  Level Salt Lake Center
13:58 42.5017 -112.4956 124° Southeast 469 540 39,100  Level Salt Lake Center
14:00 42.4139 -112.3231 125° Southeast 466 536 39,100  Level Salt Lake Center
14:01 42.3406 -112.1806 125° Southeast 463 533 39,100  Level Salt Lake Center
14:02 42.2664 -112.0378 125° Southeast 463 533 39,100  Level Salt Lake Center
14:03 42.1936 -111.8956 125° Southeast 463 533 39,100  Level Salt Lake Center
14:04 42.1194 -111.7511 125° Southeast 466 536 39,100  Level Salt Lake Center
14:05 42.0442 -111.6075 125° Southeast 468 539 39,100  Level Salt Lake Center
14:06 41.9694 -111.4633 125° Southeast 468 539 39,100  Level Salt Lake Center
14:07 41.8786 -111.2908 125° Southeast 471 542 39,100  Level Salt Lake Center
14:08 41.8022 -111.1444 125° Southeast 475 547 39,100  Level Salt Lake Center
14:09 41.7267 -110.9994 125° Southeast 475 547 39,100  Level Salt Lake Center
14:10 41.6522 -110.8581 125° Southeast 477 549 39,100  Level Salt Lake Center
14:11 41.5664 -110.6969 125° Southeast 477 549 39,100  Level Salt Lake Center
14:12 41.4936 -110.5586 125° Southeast 477 549 39,100  Level Salt Lake Center
14:13 41.4075 -110.3989 126° Southeast 477 549 39,100  Level Salt Lake Center
14:14 41.3336 -110.2636 126° Southeast 475 547 39,100  Level Salt Lake Center
14:15 41.2481 -110.1044 126° Southeast 475 547 39,100  Level Salt Lake Center
14:16 41.1761 -109.9675 125° Southeast 474 545 39,100  Level Salt Lake Center
14:17 41.0908 -109.8111 126° Southeast 472 543 39,100  Level Salt Lake Center
14:18 41.0178 -109.6778 126° Southeast 471 542 39,100  Level Salt Lake Center
14:19 40.9331 -109.5219 126° Southeast 469 540 39,100  Level Salt Lake Center
14:20 40.8614 -109.3889 125° Southeast 467 537 39,100  Level Salt Lake Center
14:21 40.7797 -109.2394 126° Southeast 470 541 39,100  Level Salt Lake Center
14:22 40.7033 -109.1014 126° Southeast 467 537 39,100  Level Salt Lake Center
14:23 40.6186 -108.9497 126° Southeast 464 534 39,100  Level Salt Lake Center
14:24 40.5444 -108.8192 127° Southeast 466 536 39,100  Level Salt Lake Center
14:25 40.4581 -108.6667 127° Southeast 466 536 39,100  Level Salt Lake Center
14:26 40.3847 -108.5339 126° Southeast 469 540 39,100  Level Salt Lake Center
14:27 40.2972 -108.3828 127° Southeast 468 539 39,100  Level Salt Lake Center
14:28 40.2247 -108.2522 126° Southeast 465 535 39,100  Level Salt Lake Center
14:30 40.1369 -108.0994 127° Southeast 468 539 39,100  Level Salt Lake Center
14:31 40.0600 -107.9694 128° Southeast 472 543 39,100  Level Salt Lake Center
14:32 39.9469 -107.7731 127° Southeast 467 537 39,100  Level Denver Center
14:33 39.8719 -107.6444 127° Southeast 465 535 39,100  Level Denver Center
14:34 39.7831 -107.4944 128° Southeast 465 535 39,100  Level Denver Center
14:35 39.7203 -107.3875 127° Southeast 467 537 39,100  Level Denver Center
14:36 39.6183 -107.2197 128° Southeast 462 532 39,100  Level Denver Center
14:37 39.5422 -107.0889 127° Southeast 468 539 39,100  Level Denver Center
14:38 39.4753 -106.9850 130° Southeast 478 550 39,100  Level Denver Center
14:39 39.3772 -106.8131 126° Southeast 464 534 39,100  Level Denver Center
14:40 39.2867 -106.6628 128° Southeast 471 542 39,100  Level Denver Center
14:41 39.2100 -106.5364 128° Southeast 469 540 39,100  Level Denver Center
14:42 39.1331 -106.4100 128° Southeast 468 539 39,100  Level Denver Center
14:43 39.0414 -106.2636 129° Southeast 470 541 39,100  Level Denver Center
14:44 38.9619 -106.1331 128° Southeast 467 537 39,100  Level Denver Center
14:45 38.8814 -106.0044 129° Southeast 464 534 39,100  Level Denver Center
14:47 38.8022 -105.8750 128° Southeast 464 534 39,100  Level Denver Center
14:48 38.6889 -105.6947 129° Southeast 465 535 39,100  Level Denver Center
14:49 38.6094 -105.5667 128° Southeast 464 534 39,100  Level Denver Center
14:50 38.5292 -105.4389 129° Southeast 463 533 39,100  Level Denver Center
14:51 38.4322 -105.2861 129° Southeast 464 534 39,100  Level Denver Center
14:52 38.3381 -105.1386 129° Southeast 461 531 39,100  Level Denver Center
14:53 38.2611 -105.0189 129° Southeast 457 526 39,100  Level Denver Center
14:54 38.1708 -104.8769 129° Southeast 460 529 39,100  Level Denver Center
14:55 38.0933 -104.7567 129° Southeast 460 529 39,100  Level Denver Center
14:56 38.0161 -104.6347 129° Southeast 463 533 39,100  Level Denver Center
14:57 37.9253 -104.4936 129° Southeast 462 532 39,100  Level Denver Center
14:58 37.8475 -104.3750 130° Southeast 459 528 39,100  Level Denver Center
14:59 37.7569 -104.2356 129° Southeast 458 527 39,100  Level Denver Center
15:00 37.6794 -104.1169 130° Southeast 457 526 39,100  Level Denver Center
15:01 37.5936 -103.9642 125° Southeast 476 548 39,100  Level Denver Center
15:02 37.5061 -103.8481 134° Southeast 469 540 39,100  Level Denver Center
15:03 37.4267 -103.7294 130° Southeast 462 532 39,100  Level Denver Center
15:04 37.3356 -103.5931 130° Southeast 457 526 39,100  Level Denver Center
15:05 37.2572 -103.4756 130° Southeast 458 527 39,100  Level Denver Center
15:06 37.1792 -103.3589 130° Southeast 457 526 39,100  Level Albuquerque Center
15:08 37.0208 -103.1269 130° Southeast 456 525 39,100  Level Albuquerque Center
15:09 36.9292 -102.9908 130° Southeast 457 526 39,100  Level Albuquerque Center
15:10 36.8497 -102.8750 131° Southeast 458 527 39,100  Level Albuquerque Center
15:11 36.7569 -102.7397 131° Southeast 458 527 39,100  Level Albuquerque Center
15:12 36.6783 -102.6239 130° Southeast 458 527 39,100  Level Albuquerque Center
15:14 36.5992 -102.5072 130° Southeast 457 526 39,100  Level Albuquerque Center
15:15 36.5000 -102.3619 130° Southeast 459 528 39,100  Level Albuquerque Center
15:16 36.4178 -102.2428 131° Southeast 458 527 39,100  Level Albuquerque Center
15:17 36.3347 -102.1242 131° Southeast 455 524 39,100  Level Albuquerque Center
15:18 36.2517 -102.0056 131° Southeast 455 524 39,100  Level Albuquerque Center
15:19 36.1692 -101.8872 131° Southeast 454 522 39,100  Level Albuquerque Center
15:20 36.0867 -101.7692 131° Southeast 453 521 39,100  Level Albuquerque Center
15:21 36.0033 -101.6486 130° Southeast 457 526 39,100  Level Albuquerque Center
15:22 35.9181 -101.5303 132° Southeast 459 528 39,100  Level Albuquerque Center
15:23 35.8161 -101.3881 131° Southeast 459 528 39,100  Level Albuquerque Center
15:24 35.7353 -101.2639 129° Southeast 461 531 39,100  Level Albuquerque Center
15:25 35.6564 -101.1389 128° Southeast 461 531 39,100  Level Albuquerque Center
15:26 35.5778 -101.0128 127° Southeast 462 532 39,100  Level Albuquerque Center
15:27 35.4969 -100.8878 128° Southeast 464 534 39,100  Level Albuquerque Center
15:28 35.4167 -100.7614 128° Southeast 466 536 39,100  Level Albuquerque Center
15:29 35.3292 -100.6261 128° Southeast 468 539 39,100  Level Albuquerque Center
15:30 35.2478 -100.4989 128° Southeast 471 542 39,100  Level Albuquerque Center
15:31 35.1575 -100.3578 128° Southeast 470 541 39,100  Level Albuquerque Center
15:32 35.0861 -100.2475 128° Southeast 472 543 39,100  Level Albuquerque Center
15:33 34.9881 -100.0972 129° Southeast 472 543 39,100 -60 Level Albuquerque Center
15:34 34.9075 -99.9725 128° Southeast 470 541 39,000 -780 Descending Albuquerque Center
15:35 34.8267 -99.8478 128° Southeast 470 541 37,600 -1,440 Descending Albuquerque Center
15:36 34.7472 -99.7272 129° Southeast 462 532 36,100 -1,320 Descending Albuquerque Center
15:37 34.6667 -99.6050 129° Southeast 462 532 34,900 -540 Descending Albuquerque Center
15:38 34.5842 -99.4797 129° Southeast 470 541 35,000  Climbing Albuquerque Center
15:39 34.4983 -99.3461 128° Southeast 471 542 35,000  Level Fort Worth Center
15:40 34.4189 -99.2261 129° Southeast 471 542 35,000 -420 Level Fort Worth Center
15:41 34.3308 -99.1008 130° Southeast 456 525 34,200 -1,920 Descending Fort Worth Center
15:42 34.2469 -98.9811 130° Southeast 445 512 31,200 -2,760 Descending Fort Worth Center
15:43 34.1650 -98.8592 129° Southeast 462 532 28,700 -2,100 Descending Fort Worth Center
15:44 34.1033 -98.7656 128° Southeast 462 532 27,100 -1,740 Descending Fort Worth Center
15:45 34.0108 -98.6286 129° Southeast 439 505 25,300 -1,560 Descending Fort Worth Center
15:46 33.9450 -98.5228 127° Southeast 434 499 24,000 -660 Descending Fort Worth Center
15:47 33.8833 -98.4092 123° Southeast 427 491 24,000 -600 Level Fort Worth Center
15:48 33.8092 -98.2808 125° Southeast 420 483 22,800 -1,680 Descending Fort Worth Center
15:49 33.7453 -98.1728 125° Southeast 408 470 20,700 -2,100 Descending Fort Worth Center
15:50 33.6833 -98.0650 125° Southeast 400 460 18,700 -1,980 Descending Fort Worth Center
15:51 33.6275 -97.9697 125° Southeast 394 453 16,800 -1,920 Descending Fort Worth Center
15:52 33.5653 -97.8647 125° Southeast 387 445 14,900 -2,100 Descending Fort Worth Center
15:53 33.4903 -97.7647 132° Southeast 380 437 12,700 -1,800 Descending Fort Worth Center
15:54 33.4258 -97.6922 137° Southeast 358 412 11,300 -1,080 Descending Fort Worth Center
15:55 33.3572 -97.6125 136° Southeast 330 380 10,600 -1,080 Descending Fort Worth Center
15:57 33.3000 -97.5000 121° Southeast 283 326 8,900 -1,380 Descending Dallas / Fort Worth TRACON
15:58 33.2500 -97.4167 126° Southeast 283 326 7,300 -1,500 Descending Dallas / Fort Worth TRACON
15:59 33.2333 -97.3333 103° East 279 321 5,800 -1,200 Descending Dallas / Fort Worth TRACON
16:00 33.2000 -97.2500 116° Southeast 231 266 5,000 -420 Descending Dallas / Fort Worth TRACON
16:01 33.1667 -97.1833 121° Southeast 228 262 5,000 -480 Level Dallas / Fort Worth TRACON
16:02 33.1500 -97.1167 107° East 206 237 4,100 -960 Descending Dallas / Fort Worth TRACON
16:02 33.1336 -97.0983 137° Southeast 202 232 3,600 -720 Descending Fort Worth Center
16:03 33.1167 -97.0489 112° Southeast 185 213 3,000 -300 Descending Fort Worth Center
16:04 33.0750 -97.0267 156° South 153 176 3,100 -180 Climbing Fort Worth Center
16:05 33.0289 -97.0294 183° South 164 189 2,700 -660 Descending Fort Worth Center
16:06 32.9747 -97.0297 180° South 179 206 1,800 -840 Descending Fort Worth Center
16:07 32.9372 -97.0272 177° South 166 191 1,100 -720 Descending Fort Worth Center